Temp
-9 -9 -9 -9 -9 -10 -10 -11 -12 -12 -12 -13 -14 -14 -14 -14 -14 -14 -14 -14 -14 -14 -14 -14 -14 -15 -15 -15 -14 -14 -14 -14 -13 -13 -12 -12 -12 -11
-10 -10 -10 -10 -11 -11 -12 -12 -13 -13 -14 -14 -14 -14 -14 -14 -14 -14 -14 -14 -15 -15 -15 -15 -15 -15 -15 -15 -15 -15 -14 -14 -13 -13 -13 -12 -12 -12
-11 -11 -11 -11 -12 -12 -13 -13 -14 -14 -14 -14 -14 -14 -14 -15 -15 -15 -15 -15 -15 -16 -15 -15 -16 -16 -16 -16 -15 -15 -15 -14 -14 -13 -13 -12 -12 -12
-12 -12 -12 -12 -13 -13 -13 -14 -14 -15 -15 -14 -14 -15 -15 -15 -15 -15 -16 -16 -16 -16 -16 -16 -16 -16 -16 -15 -15 -15 -15 -15 -15 -14 -13 -13 -13 -12
-12 -12 -12 -13 -13 -14 -14 -15 -15 -15 -15 -15 -15 -15 -15 -16 -16 -16 -16 -16 -16 -16 -17 -16 -16 -16 -16 -16 -16 -16 -17 -16 -16 -16 -15 -14 -13 -13
-12 -13 -13 -13 -14 -14 -15 -15 -15 -15 -15 -16 -16 -16 -16 -16 -16 -16 -16 -17 -16 -17 -17 -16 -17 -17 -17 -17 -17 -17 -18 -18 -17 -17 -16 -16 -15 -14
-12 -12 -13 -14 -14 -15 -15 -15 -15 -15 -16 -16 -16 -16 -16 -16 -16 -17 -17 -17 -17 -17 -17 -17 -18 -18 -18 -18 -18 -17 -18 -18 -18 -17 -17 -17 -16 -16
-12 -13 -14 -14 -14 -15 -15 -15 -15 -16 -16 -16 -16 -16 -16 -16 -17 -17 -17 -17 -16 -18 -17 -17 -19 -19 -19 -19 -18 -18 -18 -18 -18 -18 -18 -17 -17 -17
-12 -13 -14 -14 -15 -15 -15 -16 -16 -16 -16 -16 -16 -16 -16 -17 -17 -17 -17 -18 -18 -18 -18 -17 -19 -19 -19 -19 -19 -18 -18 -18 -18 -18 -18 -18 -17 -17
-13 -14 -14 -14 -15 -15 -15 -16 -16 -17 -17 -17 -16 -16 -16 -17 -17 -17 -17 -17 -18 -19 -19 -18 -19 -19 -19 -19 -19 -19 -19 -19 -19 -18 -18 -18 -17 -17
-13 -14 -14 -15 -15 -15 -16 -16 -16 -17 -17 -17 -17 -16 -16 -17 -17 -17 -18 -18 -18 -19 -20 -19 -19 -19 -18 -19 -19 -19 -19 -19 -19 -18 -18 -17 -17 -17
-13 -14 -15 -15 -15 -16 -16 -16 -17 -17 -17 -17 -17 -17 -17 -17 -17 -17 -18 -18 -18 -18 -19 -19 -19 -19 -18 -18 -19 -19 -19 -19 -19 -19 -18 -18 -17 -17
-14 -14 -15 -15 -16 -16 -16 -16 -17 -17 -17 -17 -17 -17 -17 -17 -17 -18 -18 -18 -18 -18 -19 -19 -19 -19 -19 -18 -18 -19 -19 -19 -19 -18 -18 -18 -17 -17
-14 -15 -15 -16 -16 -16 -16 -17 -17 -17 -17 -17 -17 -17 -17 -17 -17 -17 -18 -18 -19 -19 -19 -19 -19 -19 -19 -19 -19 -19 -19 -19 -18 -18 -18 -18 -17 -17
-15 -15 -16 -16 -16 -17 -17 -17 -17 -17 -17 -17 -17 -18 -17 -17 -17 -17 -18 -18 -19 -19 -19 -19 -19 -19 -19 -19 -19 -19 -19 -19 -18 -18 -17 -17 -17 -16
-15 -16 -16 -17 -17 -17 -17 -17 -17 -17 -17 -18 -18 -18 -18 -18 -17 -17 -17 -18 -19 -19 -19 -19 -19 -19 -19 -19 -19 -19 -19 -18 -18 -18 -17 -17 -16 -16
-16 -16 -17 -17 -17 -17 -17 -17 -17 -17 -17 -18 -18 -18 -18 -18 -18 -17 -17 -18 -18 -18 -19 -19 -19 -19 -19 -19 -19 -19 -19 -19 -18 -18 -17 -16 -16 -16
-17 -17 -17 -17 -17 -17 -17 -17 -17 -17 -18 -18 -18 -18 -18 -18 -18 -18 -18 -18 -18 -19 -19 -19 -19 -19 -19 -19 -19 -19 -19 -19 -18 -18 -17 -16 -16 -15
-17 -17 -17 -17 -17 -18 -17 -17 -17 -17 -17 -18 -18 -18 -18 -18 -18 -18 -18 -18 -18 -19 -19 -19 -19 -19 -19 -19 -18 -19 -19 -19 -18 -18 -18 -17 -17 -16
-17 -17 -17 -17 -18 -17 -17 -17 -17 -17 -17 -18 -18 -18 -18 -18 -18 -18 -18 -18 -18 -18 -19 -19 -19 -19 -19 -19 -19 -18 -19 -19 -19 -18 -18 -17 -17 -17
-17 -18 -18 -18 -18 -17 -17 -17 -17 -17 -17 -18 -18 -18 -18 -18 -18 -18 -18 -18 -18 -18 -19 -19 -19 -19 -19 -19 -19 -18 -18 -19 -18 -18 -18 -18 -17 -17
-17 -18 -18 -18 -18 -18 -17 -17 -17 -18 -17 -17 -18 -18 -18 -18 -18 -18 -19 -19 -18 -18 -18 -19 -19 -19 -19 -19 -19 -19 -19 -19 -19 -19 -18 -18 -18 -17
-18 -18 -18 -18 -18 -18 -18 -18 -18 -17 -17 -18 -18 -18 -18 -18 -18 -19 -19 -19 -18 -18 -18 -19 -19 -19 -19 -19 -19 -19 -19 -19 -19 -19 -19 -18 -18 -18
Height
3061 3056 3051 3046 3042 3037 3033 3028 3022 3018 3012 3011 3008 3005 3002 2999 2997 2992 2985 2981 2977 2973 2969 2966 2962 2959 2957 2956 2955 2954 2953 2954 2955 2956 2958 2958 2959 2961
3053 3046 3042 3037 3033 3029 3023 3018 3014 3010 3006 3003 2999 2996 2992 2988 2984 2980 2975 2970 2965 2961 2957 2954 2951 2948 2946 2944 2944 2944 2944 2944 2945 2946 2947 2948 2949 2951
3043 3038 3034 3029 3024 3020 3015 3010 3007 3002 2998 2996 2992 2988 2984 2979 2975 2969 2964 2958 2954 2950 2946 2943 2941 2938 2935 2934 2933 2933 2933 2933 2933 2935 2936 2937 2939 2941
3034 3030 3026 3021 3016 3011 3007 3003 2999 2994 2989 2987 2984 2981 2976 2971 2965 2959 2954 2949 2944 2941 2937 2934 2932 2930 2927 2925 2924 2923 2922 2922 2922 2923 2924 2926 2928 2929
3027 3022 3017 3012 3008 3003 2999 2995 2991 2987 2982 2979 2976 2972 2968 2962 2956 2950 2946 2942 2937 2931 2927 2925 2923 2920 2918 2916 2913 2912 2912 2912 2912 2912 2913 2914 2917 2919
3017 3013 3008 3004 3000 2996 2992 2988 2984 2980 2976 2972 2969 2964 2959 2954 2947 2941 2939 2933 2930 2924 2920 2917 2914 2911 2909 2906 2905 2903 2902 2902 2902 2901 2901 2903 2905 2908
3010 3005 3001 2997 2993 2989 2985 2980 2976 2973 2969 2965 2962 2957 2952 2946 2940 2935 2929 2926 2923 2916 2914 2912 2906 2905 2903 2900 2897 2895 2894 2893 2893 2892 2892 2893 2894 2897
3002 2998 2994 2990 2986 2982 2978 2974 2970 2966 2963 2959 2956 2949 2945 2939 2934 2928 2922 2918 2916 2910 2907 2908 2900 2900 2897 2894 2891 2889 2888 2886 2885 2885 2884 2885 2887 2889
2994 2990 2986 2982 2978 2974 2970 2967 2963 2959 2956 2953 2948 2943 2939 2933 2928 2923 2917 2912 2908 2905 2900 2901 2897 2895 2892 2889 2886 2884 2882 2881 2880 2880 2879 2879 2880 2882
2986 2982 2978 2974 2970 2966 2963 2960 2957 2953 2950 2946 2942 2938 2934 2929 2924 2918 2913 2908 2904 2901 2896 2895 2893 2891 2888 2884 2880 2878 2877 2876 2874 2874 2874 2874 2874 2876
2978 2973 2970 2966 2962 2959 2956 2952 2950 2947 2944 2941 2937 2933 2929 2924 2919 2913 2908 2903 2900 2897 2893 2890 2890 2887 2885 2881 2876 2873 2871 2870 2869 2868 2867 2868 2869 2870
2969 2965 2961 2958 2954 2951 2948 2945 2943 2941 2938 2935 2932 2928 2924 2920 2914 2909 2903 2899 2895 2893 2890 2886 2886 2882 2879 2877 2874 2869 2866 2864 2864 2862 2860 2860 2861 2861
2960 2957 2953 2949 2946 2943 2941 2939 2936 2934 2932 2930 2927 2923 2920 2916 2911 2905 2900 2895 2891 2888 2885 2881 2881 2879 2875 2872 2870 2866 2861 2859 2859 2857 2855 2853 2852 2852
2951 2948 2944 2941 2938 2936 2934 2931 2929 2927 2926 2924 2921 2919 2915 2911 2907 2902 2896 2892 2887 2882 2880 2876 2875 2874 2871 2869 2865 2862 2858 2855 2855 2853 2851 2848 2846 2844
2942 2939 2935 2933 2930 2928 2926 2924 2922 2920 2919 2918 2916 2913 2911 2907 2903 2898 2893 2887 2883 2879 2875 2871 2869 2868 2867 2865 2861 2858 2854 2853 2852 2851 2847 2844 2840 2840
2931 2929 2926 2924 2922 2921 2918 2916 2914 2913 2912 2911 2910 2908 2906 2903 2899 2894 2890 2885 2881 2877 2871 2867 2864 2863 2863 2862 2859 2856 2852 2851 2851 2849 2845 2842 2839 2840
2920 2918 2917 2916 2915 2913 2911 2908 2907 2905 2905 2905 2904 2903 2901 2898 2895 2890 2886 2881 2876 2872 2869 2865 2861 2859 2858 2858 2856 2853 2850 2849 2849 2848 2845 2843 2841 2841
2910 2908 2908 2906 2906 2905 2903 2901 2899 2899 2898 2898 2898 2897 2896 2893 2890 2886 2882 2878 2874 2870 2866 2862 2859 2857 2856 2856 2854 2852 2850 2849 2848 2848 2846 2844 2844 2842
2900 2898 2898 2897 2897 2896 2895 2894 2893 2892 2891 2892 2892 2891 2890 2888 2886 2883 2879 2876 2872 2867 2863 2860 2857 2855 2855 2854 2854 2852 2850 2848 2848 2849 2849 2848 2847 2846
2891 2889 2888 2887 2887 2888 2887 2886 2886 2885 2884 2885 2885 2885 2885 2883 2881 2879 2876 2873 2870 2866 2862 2859 2856 2854 2854 2854 2853 2852 2851 2849 2848 2849 2849 2850 2849 2849
2883 2880 2878 2878 2878 2879 2879 2878 2878 2878 2878 2878 2879 2879 2879 2878 2877 2875 2872 2870 2868 2864 2861 2858 2855 2853 2853 2853 2853 2852 2851 2850 2850 2850 2849 2850 2850 2850
2873 2871 2870 2869 2870 2871 2871 2870 2871 2871 2872 2872 2873 2873 2873 2873 2872 2871 2869 2867 2865 2862 2859 2857 2854 2852 2851 2851 2851 2851 2851 2850 2850 2849 2850 2850 2849 2849
2864 2863 2862 2861 2862 2863 2863 2863 2864 2865 2865 2866 2866 2867 2867 2867 2867 2866 2865 2864 2863 2860 2858 2855 2853 2851 2850 2849 2850 2850 2850 2850 2849 2848 2848 2849 2849 2849
Wind_Speed
40 48 46 42 40 39 37 36 36 38 39 35 35 39 43 44 48 49 44 43 43 44 46 47 48 47 45 43 41 38 37 37 35 34 34 36 37 43
47 44 40 39 36 36 35 34 32 33 37 38 39 43 44 44 43 42 43 44 44 43 42 41 41 41 38 36 35 34 34 35 35 35 35 36 37 39
41 41 37 37 37 35 33 31 32 33 35 34 36 38 39 40 41 42 42 41 40 39 39 37 35 35 36 36 36 36 35 36 36 35 35 36 37 38
39 37 35 35 35 36 35 33 32 33 34 36 34 35 37 39 41 40 39 38 38 37 35 34 33 34 35 37 37 37 37 37 37 37 37 37 38 41
32 34 36 37 36 35 34 33 33 33 34 34 33 35 36 36 37 38 37 35 33 34 34 34 34 34 33 33 33 33 33 34 34 36 36 37 38 41
33 35 38 38 36 36 35 34 34 34 33 32 33 34 35 34 35 36 32 32 30 30 32 32 30 29 29 30 30 31 31 32 33 34 35 37 36 39
36 38 38 38 37 36 35 34 34 33 31 32 32 32 32 33 34 33 33 28 25 29 26 23 28 26 25 26 25 24 25 27 27 28 30 30 32 34
37 37 37 37 37 35 34 33 33 32 30 31 30 31 31 33 33 32 31 28 23 21 22 17 24 19 22 24 22 22 22 23 23 25 24 23 26 29
36 37 36 36 36 35 33 32 31 29 29 29 28 29 30 31 32 31 29 28 24 19 25 16 16 16 21 23 24 22 21 19 21 23 22 23 23 27
36 36 36 35 34 33 32 30 28 26 28 27 27 27 29 29 30 29 28 26 21 17 22 18 14 15 18 20 23 23 21 18 19 23 25 24 25 23
36 36 35 34 33 31 29 29 26 24 25 25 25 26 26 28 29 29 28 26 21 14 16 20 14 17 16 17 17 20 24 22 21 22 26 27 24 26
37 36 35 34 32 30 29 28 24 23 23 23 24 24 25 26 27 28 28 27 24 16 12 19 15 20 15 16 18 20 23 23 21 21 23 25 28 32
38 35 34 34 31 29 29 27 24 23 22 23 22 23 23 24 25 26 26 27 25 21 17 22 18 17 19 22 21 23 22 18 18 18 18 17 21 25
37 35 33 33 30 28 28 26 24 23 23 21 21 22 23 24 24 24 23 23 24 24 20 22 22 21 22 23 25 21 19 15 12 13 16 19 16 20
37 34 33 31 29 27 28 27 25 23 22 21 21 22 22 23 23 23 23 23 22 23 24 23 23 22 21 22 24 24 20 10 12 15 18 14 19 15
37 34 32 28 33 28 28 28 26 24 22 21 22 22 22 22 22 23 23 22 20 19 22 23 20 20 19 19 18 21 16 8 9 13 11 12 6 9
37 34 30 30 30 26 26 28 26 24 23 22 22 22 22 22 21 21 22 22 21 21 17 18 18 16 16 13 15 17 10 8 12 12 8 11 5 7
36 34 32 30 26 25 25 26 26 24 23 23 22 21 21 21 20 19 20 21 22 20 18 15 13 13 13 10 13 12 7 7 8 9 9 9 14 10
37 34 31 29 25 24 26 24 24 23 24 22 22 21 20 19 19 17 19 20 20 19 19 15 12 9 9 8 9 10 7 7 5 9 3 6 8 10
35 34 29 27 23 23 27 24 22 22 23 21 22 20 20 19 17 17 17 19 19 17 16 14 12 8 6 4 4 5 4 9 2 4 6 2 4 7
35 33 28 26 24 24 25 25 22 21 21 21 21 20 20 19 17 15 16 18 17 16 15 13 11 7 6 6 4 4 5 2 2 3 5 4 8 6
33 29 26 25 27 26 25 25 23 21 19 20 20 20 21 20 17 15 15 16 17 15 14 12 9 7 6 6 6 6 6 4 5 8 7 4 5 10
28 25 23 22 25 23 21 22 23 20 18 19 21 21 22 20 18 15 14 15 15 14 13 11 10 7 6 10 9 8 8 8 7 7 5 5 4 4
Wind_Direction
296 301 295 293 296 299 301 301 297 296 296 296 292 291 290 290 291 295 294 294 293 293 291 289 287 286 285 283 281 277 273 270 266 264 259 257 252 247
300 292 296 299 301 304 301 300 297 291 290 292 293 292 293 294 296 296 297 297 297 296 293 290 288 286 285 282 279 276 273 272 269 265 261 257 254 251
297 295 299 302 307 306 303 299 294 293 295 295 294 295 297 298 298 299 299 299 299 296 293 289 286 283 282 282 280 278 275 273 270 265 260 255 253 252
298 301 306 307 307 307 307 304 301 300 298 296 298 297 299 301 302 302 302 302 299 297 293 290 288 286 284 283 283 280 277 274 271 268 262 254 252 251
303 307 307 307 310 309 306 305 304 302 299 301 301 301 304 304 303 303 304 301 299 295 294 294 293 291 288 286 282 279 277 274 271 270 265 259 252 249
306 307 309 309 309 310 308 306 304 301 301 301 303 306 307 308 308 308 306 302 299 292 294 295 295 293 295 291 287 281 277 276 275 273 266 261 254 248
306 306 306 307 308 307 306 304 302 300 301 302 307 307 313 315 313 312 311 307 302 301 295 301 294 297 298 297 296 289 283 280 280 276 271 265 255 249
303 304 304 305 305 306 303 301 301 300 300 303 308 315 320 318 317 317 314 313 310 304 294 300 292 300 297 301 299 293 290 284 279 277 273 266 253 251
302 301 301 303 304 302 300 300 298 298 299 305 312 318 321 321 321 321 320 318 318 308 302 317 301 308 302 303 300 295 296 291 275 259 266 265 257 256
301 299 299 301 302 300 298 297 295 294 297 304 310 316 320 323 324 323 324 321 320 310 300 312 307 324 320 310 291 288 287 289 283 265 262 266 260 256
302 300 300 299 299 296 296 296 294 291 296 301 308 314 320 326 326 327 326 323 321 303 287 294 309 312 327 337 317 293 281 285 286 286 261 257 258 259
300 298 296 296 296 294 295 296 293 287 293 299 304 311 320 325 326 327 325 325 324 308 285 282 296 320 321 333 343 326 295 281 290 288 287 261 258 262
298 297 294 293 294 291 293 295 289 285 290 293 300 307 315 321 326 328 322 322 321 319 294 287 287 300 320 322 324 320 313 284 293 290 286 280 271 267
296 294 290 290 291 289 291 293 288 283 283 287 295 303 311 318 325 331 326 321 321 318 308 289 286 292 304 319 322 329 316 289 285 287 294 294 281 256
294 291 286 286 288 288 289 290 287 279 280 286 290 297 305 312 321 332 334 328 325 316 314 306 291 289 299 308 317 327 320 272 278 306 320 296 289 246
292 287 283 278 285 289 285 288 288 279 276 281 284 290 298 307 316 327 336 334 326 320 315 313 301 290 295 302 309 329 314 268 272 310 310 342 259 205
289 284 281 270 274 283 283 285 285 278 273 275 279 286 294 303 312 322 333 335 331 329 323 315 305 296 299 305 311 324 311 285 259 303 4 41 280 245
292 284 280 276 272 284 279 284 282 276 269 269 275 283 291 300 308 319 330 334 334 331 330 328 308 290 295 302 324 335 323 298 267 270 34 34 86 108
294 287 283 276 268 283 277 280 277 271 265 265 270 278 286 295 306 315 327 332 332 332 333 332 321 291 281 283 317 341 332 323 257 260 337 50 48 125
297 292 282 275 259 274 274 274 272 267 265 262 266 273 280 288 300 313 323 329 330 332 334 333 329 301 276 264 330 0 10 359 251 292 294 263 105 90
293 290 282 270 251 263 281 271 267 267 262 259 264 269 274 280 290 307 318 323 327 333 336 338 331 308 277 252 265 322 332 303 301 29 35 196 193 249
288 286 285 276 254 259 279 275 268 260 262 261 262 265 270 275 282 294 310 316 321 330 335 336 331 315 268 249 255 268 293 286 301 292 295 315 267 252
277 280 283 275 263 257 274 269 263 264 258 258 260 263 266 271 276 283 296 307 313 323 330 331 335 321 284 250 251 256 254 271 299 310 300 270 258 262